Location: Northam
(31.6525°S, 116.6655°E)
Time: 03:56:46
(UTC+08:00)

LightSail 2 - Visible Passes

Search period start: 22 August 2019 00:00
Search period end: 01 September 2019 00:00
Orbit: 701 x 732 km, 24.0° (Epoch: 21 August)

Date Brightness Start Highest point End Pass type
(mag) Time Alt. Az. Time Alt. Az. Time Alt. Az.
23 Aug 7.7 05:33:29 10° N 05:35:44 13° NNE 05:38:00 10° NE visible
25 Aug 7.3 05:23:28 10° NNW 05:27:06 19° NNE 05:30:44 10° ENE visible
26 Aug 7.3 04:29:25 15° N 04:30:16 15° NNE 04:33:12 10° NE visible
26 Aug 6.7 06:10:50 10° NW 06:15:19 30° N 06:19:51 10° ENE visible
27 Aug 6.8 05:15:11 14° NW 05:18:27 26° NNE 05:22:44 10° ENE visible
28 Aug 6.9 04:21:50 22° NNE 04:21:50 22° NNE 04:25:31 10° ENE visible
28 Aug 6.4 06:02:04 10° WNW 06:06:44 34° N 06:11:26 10° ENE visible
29 Aug 6.4 05:07:28 22° NW 05:09:50 32° N 05:14:25 10° ENE visible
30 Aug 6.8 04:14:00 26° NNE 04:14:00 26° NNE 04:17:20 10° ENE visible
30 Aug 6.3 05:53:27 10° WNW 05:58:08 35° N 06:02:52 10° ENE visible
31 Aug 6.2 04:59:33 28° NW 05:01:13 35° N 05:05:54 10° ENE visible
